FW2996 Weather Reports


Display with metric or nautical units.
time (UTC)temp
F
wind
direction
speed
MPH
gust
MPH
rain 1hr
in
rain 24hr
in
rain mn
in
humidity
%
barometer
mb
20260508102523 60 358 3.0 3.0 0.00 0.00 0.00 88 1055.7
20260508102021 60 5 2.0 2.0 0.00 0.00 0.00 87 1055.5
20260508101518 60 18 1.0 3.0 0.00 0.00 0.00 86 1055.7
20260508101015 60 19 1.0 4.0 0.00 0.00 0.00 86 1055.6
20260508100513 60 21 2.0 3.0 0.00 0.00 0.00 86 1055.6
20260508100009 60 62 1.0 3.0 0.00 0.00 0.00 85 1055.6
20260508095507 60 62 0.0 3.0 0.00 0.00 0.00 85 1055.8
20260508095003 60 62 1.0 2.0 0.00 0.00 0.00 85 1056.0
20260508094501 60 62 1.0 1.0 0.00 0.00 0.00 85 1056.0
20260508093957 60 62 0.0 1.0 0.00 0.00 0.00 85 1055.9
20260508093454 60 62 0.0 0.0 0.00 0.00 0.00 85 1055.8
20260508092952 60 62 0.0 0.0 0.00 0.00 0.00 85 1055.8
20260508092449 60 62 0.0 0.0 0.00 0.00 0.00 85 1055.9
20260508091948 60 62 0.0 0.0 0.00 0.00 0.00 84 1055.8
20260508091444 60 62 0.0 0.0 0.00 0.00 0.00 85 1055.9
20260508090942 60 62 0.0 0.0 0.00 0.00 0.00 84 1056.1
20260508090440 60 62 0.0 0.0 0.00 0.00 0.00 84 1055.9
20260508085935 60 62 0.0 0.0 0.00 0.00 0.00 83 1055.9
20260508085432 60 62 0.0 0.0 0.00 0.00 0.00 83 1055.6
20260508084929 60 62 0.0 2.0 0.00 0.00 0.00 83 1055.5
20260508084425 60 62 0.0 0.0 0.00 0.00 0.00 84 1055.6
20260508083923 60 62 0.0 1.0 0.00 0.00 0.00 84 1055.7
20260508083420 60 62 0.0 0.0 0.00 0.00 0.00 84 1055.7
20260508082914 60 62 1.0 2.0 0.00 0.00 0.00 83 1055.7
20260508082412 60 62 0.0 0.0 0.00 0.00 0.00 84 1055.8
20260508081910 60 62 0.0 0.0 0.00 0.00 0.00 84 1055.8
20260508081407 60 62 0.0 1.0 0.00 0.00 0.00 84 1055.7
20260508080903 60 62 1.0 2.0 0.00 0.00 0.00 83 1055.9
20260508080402 60 61 0.0 0.0 0.00 0.00 0.00 84 1055.9
20260508075857 60 61 0.0 0.0 0.00 0.00 0.00 83 1056.0
20260508075355 60 61 0.0 0.0 0.00 0.00 0.00 85 1055.9
20260508074853 60 61 0.0 0.0 0.00 0.00 0.00 83 1056.0
20260508074349 60 61 0.0 1.0 0.00 0.00 0.00 84 1055.6
20260508073846 60 61 0.0 2.0 0.00 0.00 0.00 84 1055.9
20260508073344 60 62 1.0 1.0 0.00 0.00 0.00 84 1055.8
20260508072840 60 61 1.0 2.0 0.00 0.00 0.00 84 1055.8
20260508072336 60 57 0.0 0.0 0.00 0.00 0.00 84 1055.9
20260508071834 60 44 1.0 2.0 0.00 0.00 0.00 83 1056.0
20260508071333 60 73 0.0 3.0 0.00 0.00 0.00 84 1055.8
20260508070830 60 47 1.0 2.0 0.00 0.00 0.00 85 1055.8
20260508070328 60 45 0.0 1.0 0.00 0.00 0.00 85 1055.8
20260508065825 60 46 0.0 1.0 0.00 0.00 0.00 85 1055.8
20260508065322 60 44 0.0 1.0 0.00 0.00 0.00 85 1055.7
20260508064820 60 44 1.0 1.0 0.00 0.00 0.00 85 1055.9
20260508064318 60 46 0.0 2.0 0.00 0.00 0.00 86 1056.1
20260508063815 60 46 0.0 0.0 0.00 0.00 0.00 86 1056.3
20260508063313 60 46 1.0 2.0 0.00 0.00 0.00 85 1056.3
20260508062810 60 46 0.0 0.0 0.00 0.00 0.00 86 1056.5
20260508062307 60 46 0.0 0.0 0.00 0.00 0.00 86 1056.5
20260508061804 59 46 0.0 1.0 0.00 0.00 0.00 86 1056.7
20260508061301 59 46 0.0 0.0 0.00 0.00 0.00 87 1056.5
20260508060758 59 46 0.0 0.0 0.00 0.00 0.00 86 1056.7
20260508060256 59 46 0.0 0.0 0.00 0.00 0.00 86 1056.6
20260508055751 59 46 0.0 0.0 0.00 0.00 0.00 85 1056.6
20260508055248 60 46 0.0 0.0 0.00 0.00 0.00 85 1056.5
20260508054744 60 46 0.0 1.0 0.00 0.00 0.00 85 1056.4
20260508054243 60 46 1.0 1.0 0.00 0.00 0.00 84 1056.2
20260508053739 60 46 0.0 0.0 0.00 0.00 0.00 84 1056.5
20260508053236 60 46 0.0 0.0 0.00 0.00 0.00 84 1056.6
20260508052734 60 46 0.0 0.0 0.00 0.00 0.00 84 1056.5
20260508052231 60 46 0.0 2.0 0.00 0.00 0.00 83 1056.7
20260508051727 60 46 0.0 0.0 0.00 0.00 0.00 83 1056.7
20260508051222 60 46 0.0 0.0 0.00 0.00 0.00 83 1056.5
20260508050719 60 46 0.0 1.0 0.00 0.00 0.00 83 1056.4
20260508050217 60 46 0.0 0.0 0.00 0.00 0.00 83 1056.6
20260508045718 60 46 0.0 1.0 0.00 0.01 0.01 82 1056.2
20260508045216 60 43 1.0 1.0 0.00 0.01 0.01 81 1056.4
20260508044713 60 43 0.0 1.0 0.00 0.01 0.01 82 1056.6
20260508044209 60 43 1.0 1.0 0.00 0.01 0.01 82 1056.8
20260508043705 60 43 0.0 1.0 0.00 0.01 0.01 81 1056.8
20260508043204 60 355 1.0 4.0 0.00 0.01 0.01 82 1057.2
20260508042659 60 8 2.0 4.0 0.00 0.01 0.01 82 1057.4
20260508042157 60 56 1.0 1.0 0.00 0.01 0.01 83 1056.5
20260508041653 60 68 1.0 4.0 0.00 0.01 0.01 82 1055.9
20260508041150 60 69 2.0 3.0 0.00 0.01 0.01 82 1056.0
20260508040647 60 348 0.0 1.0 0.00 0.01 0.01 83 1056.3
20260508040144 60 348 0.0 2.0 0.00 0.01 0.01 82 1056.8
20260508035641 60 348 0.0 3.0 0.00 0.01 0.01 82 1056.5
20260508035139 60 346 0.0 1.0 0.00 0.01 0.01 83 1056.7
20260508034635 60 346 1.0 2.0 0.00 0.01 0.01 83 1056.7
20260508034132 59 346 1.0 1.0 0.00 0.01 0.01 85 1056.9
20260508033630 59 346 0.0 0.0 0.00 0.01 0.01 86 1056.8
20260508033128 60 346 0.0 0.0 0.00 0.01 0.01 84 1057.0
20260508032624 60 346 0.0 0.0 0.00 0.01 0.01 84 1057.4
20260508032122 60 346 0.0 1.0 0.00 0.01 0.01 83 1057.4
20260508031619 60 346 1.0 1.0 0.00 0.01 0.01 83 1057.5
20260508031115 60 346 0.0 0.0 0.00 0.01 0.01 83 1057.5
20260508030611 61 345 0.0 2.0 0.00 0.01 0.01 81 1057.4
20260508030109 61 346 1.0 2.0 0.00 0.01 0.01 81 1057.7
20260508025605 61 346 0.0 2.0 0.00 0.01 0.01 81 1057.6
20260508025102 61 7 2.0 3.0 0.00 0.01 0.01 80 1057.3
20260508024558 61 67 0.0 0.0 0.00 0.01 0.01 80 1057.0
20260508024056 61 67 0.0 0.0 0.00 0.01 0.01 79 1056.5
20260508023552 61 67 0.0 0.0 0.00 0.01 0.01 79 1056.2
20260508023049 61 67 1.0 1.0 0.00 0.01 0.01 78 1056.1
20260508022545 61 67 0.0 1.0 0.00 0.01 0.01 78 1055.9
20260508022042 61 74 0.0 0.0 0.00 0.01 0.01 78 1055.8
20260508021538 61 74 0.0 1.0 0.00 0.01 0.01 78 1055.4
20260508021034 61 90 2.0 3.0 0.00 0.01 0.01 77 1054.9
20260508020532 62 52 0.0 4.0 0.00 0.01 0.01 77 1054.8
20260508020029 61 44 1.0 2.0 0.00 0.01 0.01 76 1055.1
20260508015526 62 58 1.0 1.0 0.00 0.01 0.01 76 1055.3
20260508015024 62 71 0.0 3.0 0.00 0.01 0.01 76 1055.3
20260508014520 62 37 0.0 1.0 0.00 0.01 0.01 76 1055.6
20260508014016 62 78 2.0 4.0 0.00 0.01 0.01 75 1055.0
20260508013512 62 76 2.0 6.0 0.00 0.01 0.01 74 1055.1
20260508013010 62 77 3.0 3.0 0.00 0.01 0.01 74 1055.0
20260508012507 63 125 5.0 7.0 0.00 0.01 0.01 74 1055.1
20260508012004 63 117 1.0 6.0 0.00 0.01 0.01 74 1055.1
20260508011502 63 77 2.0 7.0 0.00 0.01 0.01 73 1055.4
20260508010959 63 78 3.0 4.0 0.00 0.01 0.01 73 1055.5
20260508010456 63 57 0.0 3.0 0.00 0.01 0.01 74 1055.5
20260508005953 63 72 2.0 8.0 0.00 0.01 0.01 72 1055.4
20260508005450 63 25 3.0 4.0 0.00 0.01 0.01 73 1055.7
20260508004946 63 44 3.0 4.0 0.00 0.01 0.01 73 1055.5
20260508004442 64 57 2.0 9.0 0.00 0.01 0.01 73 1055.1
20260508003939 64 74 3.0 4.0 0.00 0.01 0.01 73 1055.3
20260508003436 64 34 2.0 2.0 0.00 0.01 0.01 73 1055.8
20260508002933 64 58 0.0 4.0 0.00 0.01 0.01 75 1055.7
20260508002430 64 114 2.0 8.0 0.00 0.01 0.01 73 1055.6
20260508001926 64 40 2.0 3.0 0.00 0.01 0.01 75 1055.9
20260508001423 64 100 4.0 7.0 0.00 0.01 0.01 74 1055.6
20260508000919 64 53 1.0 3.0 0.00 0.01 0.01 73 1056.4
20260508000415 64 19 1.0 2.0 0.00 0.01 0.01 73 1056.4
20260507235912 64 47 1.0 2.0 0.00 0.01 0.01 73 1056.3
20260507235409 65 47 1.0 6.0 0.00 0.01 0.01 71 1055.9
20260507234906 65 63 1.0 3.0 0.00 0.01 0.01 72 1056.3
20260507234403 65 52 2.0 2.0 0.00 0.01 0.01 72 1056.6
20260507233859 65 41 0.0 2.0 0.00 0.01 0.01 71 1056.7
20260507233357 65 42 0.0 2.0 0.00 0.01 0.01 69 1056.9
20260507232855 66 31 1.0 3.0 0.00 0.01 0.01 68 1056.8
20260507232351 66 48 1.0 2.0 0.00 0.01 0.01 68 1056.6
20260507231849 67 130 3.0 4.0 0.00 0.01 0.01 68 1056.6
20260507231345 67 56 0.0 0.0 0.00 0.01 0.01 69 1056.5
20260507230841 66 71 1.0 2.0 0.00 0.01 0.01 70 1056.5
20260507230338 66 26 3.0 6.0 0.00 0.01 0.01 70 1056.6
20260507225838 66 1 2.0 3.0 0.00 0.01 0.01 69 1056.7
20260507225334 66 43 1.0 3.0 0.00 0.01 0.01 69 1056.8
20260507224831 66 50 2.0 3.0 0.00 0.01 0.01 69 1056.5
20260507224328 66 57 1.0 6.0 0.00 0.01 0.01 68 1056.7
20260507223824 66 22 2.0 4.0 0.00 0.01 0.01 69 1057.3
20260507223320 66 15 4.0 6.0 0.00 0.01 0.01 69 1057.3
20260507222817 66 24 3.0 4.0 0.00 0.01 0.01 68 1057.3
20260507222314 66 22 1.0 3.0 0.00 0.01 0.01 69 1057.3
20260507221811 66 4 1.0 2.0 0.00 0.01 0.01 70 1057.5
20260507221307 66 25 2.0 4.0 0.00 0.01 0.01 69 1057.5
20260507220803 66 11 2.0 3.0 0.00 0.01 0.01 69 1057.4
20260507220302 66 30 1.0 6.0 0.00 0.01 0.01 70 1057.4
20260507215757 66 27 2.0 2.0 0.00 0.01 0.01 70 1057.4
20260507215255 66 18 1.0 3.0 0.00 0.01 0.01 69 1057.5
20260507214752 66 36 2.0 6.0 0.00 0.01 0.01 67 1057.6
20260507214249 65 22 2.0 4.0 0.00 0.01 0.01 68 1057.4
20260507213744 65 47 3.0 7.0 0.00 0.01 0.01 66 1057.4
20260507213242 65 12 2.0 8.0 0.00 0.01 0.01 67 1057.6
20260507212738 65 20 3.0 6.0 0.00 0.01 0.01 67 1057.3
20260507212229 65 6 3.0 6.0 0.00 0.01 0.01 68 1057.5
20260507211726 65 22 3.0 4.0 0.00 0.01 0.01 69 1057.3
20260507211222 66 10 4.0 6.0 0.00 0.01 0.01 66 1057.5
20260507210719 66 30 3.0 7.0 0.00 0.01 0.01 66 1057.0
20260507210216 67 5 3.0 6.0 0.00 0.01 0.01 67 1057.4
20260507205713 66 31 3.0 9.0 0.00 0.01 0.01 68 1057.6
20260507205209 66 28 2.0 8.0 0.00 0.01 0.01 69 1057.6
20260507204705 66 21 4.0 6.0 0.00 0.01 0.01 70 1057.2
20260507204204 65 37 4.0 4.0 0.00 0.01 0.01 69 1057.2
20260507203701 65 40 6.0 9.0 0.00 0.01 0.01 69 1057.7
20260507203158 64 19 4.0 7.0 0.00 0.01 0.01 69 1057.8
20260507202654 65 31 4.0 7.0 0.00 0.01 0.01 69 1058.1
20260507202150 65 17 4.0 9.0 0.00 0.01 0.01 70 1058.1
20260507201645 65 23 1.0 3.0 0.00 0.01 0.01 69 1057.9
20260507201143 64 56 4.0 6.0 0.00 0.01 0.01 70 1058.2
20260507200639 64 26 3.0 7.0 0.00 0.01 0.01 71 1058.1
20260507200135 64 28 4.0 8.0 0.00 0.01 0.01 70 1058.1
20260507195632 64 25 2.0 4.0 0.00 0.01 0.01 72 1058.5
20260507195129 65 26 2.0 8.0 0.00 0.01 0.01 72 1058.3
20260507194626 65 40 2.0 7.0 0.00 0.01 0.01 72 1058.2
20260507194121 66 15 4.0 7.0 0.00 0.01 0.01 70 1058.6
20260507193618 65 29 5.0 10.0 0.00 0.01 0.01 71 1058.4
20260507193115 64 43 4.0 8.0 0.00 0.01 0.01 71 1058.3
20260507192612 64 47 4.0 10.0 0.00 0.01 0.01 74 1058.3
20260507192109 64 66 7.0 10.0 0.00 0.01 0.01 74 1058.5
20260507191604 64 23 3.0 8.0 0.00 0.01 0.01 74 1058.9
20260507191101 64 21 4.0 6.0 0.00 0.01 0.01 75 1058.9
20260507190558 63 77 2.0 8.0 0.00 0.01 0.01 78 1059.0
20260507190057 63 358 2.0 7.0 0.00 0.01 0.01 78 1059.0
20260507185555 62 45 1.0 6.0 0.00 0.01 0.01 78 1058.9
20260507185051 62 42 3.0 7.0 0.00 0.01 0.01 78 1059.0
20260507184550 62 47 2.0 3.0 0.00 0.01 0.01 80 1058.7
20260507184047 62 87 5.0 13.0 0.00 0.01 0.01 79 1058.9
20260507183543 63 91 4.0 7.0 0.00 0.01 0.01 77 1058.9
20260507183040 62 67 0.0 6.0 0.00 0.01 0.01 80 1059.1
20260507182536 62 29 2.0 9.0 0.00 0.01 0.01 80 1058.7
20260507182032 62 74 1.0 6.0 0.00 0.01 0.01 81 1059.0
20260507181530 62 25 1.0 4.0 0.00 0.01 0.01 80 1059.3
20260507181026 62 13 3.0 4.0 0.00 0.01 0.01 81 1059.2
20260507180522 62 30 2.0 4.0 0.00 0.01 0.01 81 1059.1
20260507180019 61 29 2.0 3.0 0.00 0.01 0.01 82 1059.3
20260507175515 61 30 1.0 4.0 0.00 0.01 0.01 83 1059.1
20260507175013 61 4 3.0 7.0 0.00 0.01 0.01 84 1059.1
20260507174510 61 25 2.0 4.0 0.00 0.01 0.01 84 1058.9
20260507174008 60 31 2.0 6.0 0.00 0.01 0.01 85 1059.0
20260507173504 60 47 1.0 8.0 0.00 0.01 0.01 86 1058.7
20260507173002 60 52 2.0 4.0 0.00 0.01 0.01 86 1059.1
20260507172457 60 74 4.0 11.0 0.00 0.01 0.01 87 1058.9
20260507171954 60 45 7.0 10.0 0.00 0.01 0.01 87 1059.3
20260507171450 59 31 3.0 7.0 0.00 0.01 0.01 89 1059.5
20260507170947 59 29 2.0 7.0 0.00 0.01 0.01 89 1059.3
20260507170444 59 56 1.0 4.0 0.00 0.01 0.01 90 1059.4
20260507165940 59 40 2.0 8.0 0.00 0.01 0.01 91 1059.4
20260507165437 58 86 4.0 6.0 0.00 0.01 0.01 91 1059.1
20260507164932 58 40 2.0 7.0 0.00 0.01 0.01 93 1059.2
20260507164430 57 79 4.0 9.0 0.00 0.01 0.01 93 1059.1
20260507163926 57 27 3.0 6.0 0.00 0.01 0.01 95 1059.4
20260507163424 57 10 1.0 3.0 0.00 0.01 0.01 95 1059.5
20260507162921 57 19 1.0 4.0 0.00 0.01 0.01 95 1059.6
20260507162416 57 36 3.0 7.0 0.00 0.01 0.01 96 1059.3
20260507161914 56 19 2.0 4.0 0.00 0.01 0.01 96 1059.3
20260507161409 56 24 3.0 8.0 0.05 0.01 0.01 96 1059.8
20260507160906 56 33 5.0 10.0 0.05 0.01 0.01 96 1059.7
20260507160402 57 23 2.0 6.0 0.00 0.00 0.00 95 1060.0
20260507155858 57 337 4.0 9.0 0.00 0.00 0.00 92 1060.3
20260507155354 57 11 4.0 9.0 0.00 0.00 0.00 92 1060.6
20260507154851 57 11 6.0 13.0 0.00 0.00 0.00 91 1061.0
20260507154348 57 0 2.0 6.0 0.00 0.00 0.00 91 1060.1
20260507153846 57 38 2.0 7.0 0.00 0.00 0.00 91 1059.5
20260507153342 57 23 5.0 7.0 0.00 0.00 0.00 91 1059.8
20260507152838 57 24 1.0 4.0 0.00 0.00 0.00 92 1059.6
20260507152334 57 27 2.0 9.0 0.00 0.00 0.00 92 1059.6
20260507151830 57 23 3.0 4.0 0.00 0.00 0.00 92 1059.8
20260507151321 57 10 3.0 9.0 0.00 0.00 0.00 92 1059.5
20260507150819 57 21 2.0 3.0 0.00 0.00 0.00 93 1059.7
20260507150315 57 19 6.0 9.0 0.00 0.00 0.00 93 1059.8
20260507145811 57 2 6.0 10.0 0.00 0.00 0.00 93 1059.7
20260507145308 56 20 3.0 6.0 0.00 0.00 0.00 94 1059.7
20260507144805 56 10 5.0 7.0 0.00 0.00 0.00 94 1060.4
20260507144302 56 7 2.0 9.0 0.00 0.00 0.00 94 1060.4
20260507143758 56 15 2.0 8.0 0.00 0.00 0.00 94 1060.3
20260507143256 56 22 2.0 4.0 0.00 0.00 0.00 94 1060.4
20260507142752 56 26 2.0 2.0 0.00 0.00 0.00 94 1060.6
20260507142248 56 24 1.0 4.0 0.00 0.00 0.00 94 1060.6
20260507141745 56 20 1.0 3.0 0.00 0.00 0.00 94 1060.4
20260507141242 56 356 2.0 4.0 0.00 0.00 0.00 94 1059.9
20260507140738 56 16 3.0 7.0 0.00 0.00 0.00 94 1060.0
20260507140236 56 30 3.0 7.0 0.00 0.00 0.00 95 1059.8
20260507135733 56 12 3.0 9.0 0.00 0.00 0.00 95 1060.0
20260507135230 56 18 4.0 8.0 0.00 0.00 0.00 94 1060.0
20260507134726 56 350 4.0 7.0 0.00 0.00 0.00 94 1060.1
20260507134222 56 18 2.0 4.0 0.00 0.00 0.00 94 1059.9
20260507133719 56 23 2.0 4.0 0.00 0.00 0.00 95 1059.7
20260507133216 56 35 3.0 9.0 0.00 0.00 0.00 95 1059.4
20260507132713 56 25 3.0 7.0 0.00 0.00 0.00 95 1059.1
20260507132210 56 21 1.0 7.0 0.00 0.00 0.00 95 1059.3
20260507131706 56 19 3.0 6.0 0.00 0.00 0.00 95 1059.1
20260507131204 56 9 3.0 6.0 0.00 0.00 0.00 94 1059.1
20260507130700 56 25 2.0 7.0 0.00 0.00 0.00 94 1059.0
20260507130158 56 56 5.0 8.0 0.00 0.00 0.00 94 1059.2
20260507125657 56 30 4.0 7.0 0.00 0.00 0.00 94 1059.0
20260507125154 56 30 3.0 6.0 0.00 0.00 0.00 94 1059.2
20260507124650 56 26 2.0 9.0 0.00 0.00 0.00 93 1059.5
20260507124147 56 25 2.0 7.0 0.00 0.00 0.00 93 1059.1
20260507123646 57 19 3.0 6.0 0.00 0.00 0.00 92 1059.0
20260507123143 57 23 1.0 9.0 0.00 0.00 0.00 92 1058.8
20260507122638 57 16 2.0 7.0 0.00 0.00 0.00 92 1058.9
20260507122134 57 26 3.0 7.0 0.00 0.00 0.00 92 1058.8
20260507121630 57 22 4.0 11.0 0.00 0.00 0.00 92 1058.6
20260507121126 57 11 4.0 8.0 0.00 0.00 0.00 92 1058.6
20260507120622 57 13 4.0 6.0 0.00 0.00 0.00 92 1059.0
20260507120119 57 14 4.0 7.0 0.00 0.00 0.00 93 1058.7
20260507115615 57 6 4.0 11.0 0.00 0.00 0.00 93 1058.7
20260507115111 57 13 4.0 6.0 0.00 0.00 0.00 93 1058.2
20260507114607 57 11 4.0 9.0 0.00 0.00 0.00 93 1058.2
20260507114105 57 19 5.0 7.0 0.00 0.00 0.00 93 1058.4
20260507113602 57 15 1.0 4.0 0.00 0.00 0.00 93 1058.4
20260507113059 57 31 2.0 4.0 0.00 0.00 0.00 93 1058.4
20260507112557 57 21 5.0 6.0 0.00 0.00 0.00 93 1058.2
20260507112053 57 21 2.0 3.0 0.00 0.00 0.00 93 1058.3
20260507111550 57 17 6.0 10.0 0.00 0.00 0.00 93 1058.1
20260507111047 57 23 2.0 7.0 0.00 0.00 0.00 93 1058.3
20260507110543 57 357 2.0 4.0 0.00 0.00 0.00 93 1058.0
20260507110040 57 25 4.0 7.0 0.00 0.00 0.00 93 1058.0
20260507105537 57 24 4.0 6.0 0.00 0.00 0.00 93 1057.7
20260507105033 57 24 2.0 8.0 0.00 0.00 0.00 93 1057.8
20260507104530 57 25 4.0 6.0 0.00 0.00 0.00 93 1057.7
20260507104027 57 18 6.0 10.0 0.00 0.00 0.00 93 1058.0
20260507103523 58 22 4.0 11.0 0.00 0.00 0.00 93 1058.1
20260507103020 58 18 2.0 3.0 0.00 0.00 0.00 92 1058.2